CZ-6A DEB, 54468

Orbit data source: Space-Track

CZ-6A DEB, 54468 is space debris in SSO originally from a launch on Fri, 11 Nov 2022 UTC launched from the Taiyaun Space Center, China (TSC). Debris objects in space refer to the collection of defunct objects orbiting the Earth. Examples of debris include non-operational satellites, rocket bodies, and fragments generated from explosions, collisions, or faulty payload assembly.

Loading next visibility...
Identifier
54468, 2022-151GU
Orbit
SSO
Country
Flag of CNCN / PRC
Related business
Manufacturer
SAST
Mission
Spacecraft
Bus & Motor
Unknown
Mass
Unknown
Launch date (UTC)
2022-11-11 (4 years ago)
Launch vehicle
Unknown
Launch site
Taiyaun Space Center, China (TSC)
Object type
Payload
Rocket body
Debris
Shape & HBR
Unknown shape, 0.1 m
Radar Cross Section
Medium (>0.1 m² and <1 m²)

Expand to show TLE details & history
Last TLE update: 11 hours ago

TLE from 11 hours ago
0 CZ-6A DEB
1 54468U 22151GU  26236.47772859  .00000568  00000-0  27418-3 0  9990
2 54468  98.7525 249.0836 0053156 148.3499 212.0893 14.21788319195818
Epoch: 2026-08-24T11:27Z
TLE epoch observation values (Epoch: 2026-08-24T11:27:55.750Z)
Latitude
-0.00001°
Longitude
104.34245°
Altitude
854.704 km
Speed
7.408 km/s
True Right ascension
16h 36m 20s
True Declination
0° 00' 00"
Sunlit
Object was in daylight at epoch
Visualization orbit readout
Latitude
Unknown
Longitude
Unknown
Altitude
Unknown
Speed
Unknown
Apparent Right ascension
Unknown
Apparent Declination
Unknown
Sunlit
N/A
Visualization observer readout
Local Sidereal Time
13:49:14
Azimuth
Unknown
Elevation
Unknown
Doppler factor
Unknown
Orbital elements
Apogee altitude
854.713 km
Perigee altitude
778.226 km
Semi-major axis
7,194.606 km
Eccentricity
0.00532
Inclination
98.7525°
RAAN
249.0836°
Arg. of periapsis
148.3499°
True anomaly
211.76752°
Mean anomaly
212.0893°
Eccentric anomaly
211.92823°
Mean motion
3.55658 °/min
Orbital period
101.22 mins
BSTAR
0.00027418
Loading maneuver chart data...
Computing Atmospheric mass density...
Loading historical data...
Loading historical data...
Loading historical data...
Loading historical data...
Loading historical data...
Loading historical data...
Loading historical data...

Documentation

Showing up to 5 results
|